Dewpoint
60 60 60 60 61 61 61 61 60 60 60 60 60 61 61 61 61 62 61 61 61 62 62 62 62 62 61 63 63 62 55 41 38 38 32 35 48 60 58 60 64 65 64 41 38 31 30 29 28 27 32 34 35 33 38 41 40 37 29 29 22 23 17 21 20 22 22 19 18 18 19 20 20 21 18 19 16 16 16 16 19 19 20 22 24 26 27 27
59 60 60 60 60 61 61 60 60 60 61 60 60 60 60 60 61 60 60 60 61 61 62 63 62 61 61 63 63 62 48 42 36 35 35 44 60 62 62 64 65 65 57 37 37 34 33 28 30 28 31 26 38 34 36 36 37 32 29 24 18 26 19 22 19 23 18 18 17 19 20 20 20 19 20 16 18 15 15 16 17 17 18 19 21 25 25 24
58 59 60 60 60 61 61 60 60 60 60 61 61 60 61 59 60 60 60 60 61 61 62 62 63 62 62 62 62 60 49 42 30 28 32 58 60 62 63 63 64 63 43 37 41 35 34 32 31 27 32 27 32 30 33 31 33 33 21 15 23 28 21 22 19 19 19 19 19 19 19 19 20 21 22 18 15 18 15 14 16 16 16 18 21 22 21 21
58 59 59 59 60 60 60 59 59 60 60 60 61 60 60 59 59 60 60 61 60 61 62 62 62 62 62 61 62 55 43 35 27 29 33 57 64 64 62 62 63 59 44 43 41 38 36 29 29 29 31 25 28 34 28 29 25 28 21 17 21 28 20 19 21 20 21 20 19 19 21 21 22 20 20 18 17 16 16 15 15 15 15 17 20 23 23 19
58 58 59 59 60 60 59 59 59 60 61 60 60 60 58 59 59 60 60 60 61 61 62 62 62 62 62 61 61 48 39 26 26 38 39 61 62 64 64 62 59 52 49 44 35 32 30 29 31 32 25 18 26 29 26 29 29 26 19 23 23 26 19 20 21 23 21 23 20 20 18 20 22 20 19 18 18 18 17 16 16 15 16 16 18 20 21 16
58 58 58 59 59 59 59 59 60 60 59 59 60 60 59 59 59 59 59 59 60 61 61 62 62 61 62 59 48 44 35 24 31 36 57 60 60 63 60 60 57 51 36 30 30 31 28 28 26 28 23 21 22 21 23 27 28 21 21 21 26 21 19 20 23 23 19 19 18 19 19 21 20 19 19 18 19 19 19 17 16 16 17 17 17 20 19 17
58 58 58 58 59 59 59 59 59 59 59 59 60 62 58 59 59 59 59 59 60 61 61 62 61 61 59 59 47 39 34 35 37 40 56 59 59 54 57 53 53 38 33 29 27 26 33 28 26 28 25 26 25 23 25 26 24 20 17 21 22 24 19 21 21 24 21 17 17 18 22 19 18 19 18 18 16 17 18 17 17 17 17 17 16 16 17 19
57 57 58 58 58 58 58 59 59 59 59 59 59 61 61 59 59 59 59 60 60 61 61 62 61 59 60 50 39 36 35 30 32 40 54 57 45 43 48 42 40 41 34 30 29 23 31 29 26 30 23 20 24 23 25 19 18 22 20 25 24 22 22 23 20 22 21 19 20 21 20 19 19 19 16 16 15 16 16 17 16 16 16 15 15 17 21 20
57 57 57 58 58 58 59 59 60 59 59 59 60 60 61 59 59 59 59 59 60 60 61 61 60 59 57 47 41 33 30 37 40 41 45 42 40 38 40 32 40 36 36 39 33 29 25 24 30 28 17 21 26 21 22 15 12 25 21 25 23 21 22 22 21 21 20 19 21 17 19 21 21 20 16 14 14 16 16 16 15 14 15 14 14 16 18 19
57 57 57 57 58 58 58 59 59 59 58 59 58 60 61 60 59 59 59 60 60 61 60 61 59 58 46 39 35 28 35 41 43 43 43 42 39 37 39 43 40 37 31 36 31 27 26 27 29 34 31 28 28 21 25 19 16 23 25 26 21 19 19 20 20 20 20 17 18 14 20 21 19 22 17 14 13 16 14 14 13 12 12 12 13 16 16 18
57 57 57 57 57 58 58 59 59 59 58 58 59 59 59 58 58 58 59 60 60 60 61 60 58 55 44 35 31 27 40 40 42 43 42 41 40 37 39 42 41 39 36 37 34 37 30 34 38 38 32 25 22 20 19 19 22 23 20 18 19 18 19 19 20 20 19 17 18 17 20 21 19 23 17 13 13 14 13 12 11 12 11 12 13 14 18 15
57 57 57 57 57 58 58 59 59 59 58 58 59 59 59 58 58 58 59 60 60 61 61 61 58 42 36 34 29 29 39 40 40 44 42 41 40 41 40 42 38 38 30 31 38 40 40 38 36 24 14 27 19 20 18 22 19 20 17 15 17 19 17 19 18 19 19 18 20 21 19 18 20 18 22 13 13 13 12 11 10 11 11 13 13 14 16 12
56 56 57 57 57 57 58 58 59 59 58 58 58 59 60 58 58 58 59 60 59 61 61 60 56 49 39 31 31 39 44 38 39 39 41 44 44 44 44 44 40 37 36 34 37 39 41 37 29 22 29 23 22 14 20 22 21 19 17 16 16 20 17 19 20 20 19 18 20 18 14 15 17 19 15 13 12 11 11 10 10 12 12 13 14 14 15 14
57 56 56 57 57 57 58 58 59 58 58 58 58 59 59 57 57 57 59 61 61 61 61 58 48 38 34 32 35 41 48 39 40 39 41 40 42 43 44 43 41 38 42 38 39 41 39 36 31 28 30 19 15 26 19 19 20 16 18 22 19 18 19 19 20 20 18 23 20 16 16 14 16 17 17 13 12 11 10 10 10 12 13 13 14 15 14 14
56 56 56 56 56 57 57 58 58 58 58 57 58 58 59 57 57 57 60 59 61 61 60 56 45 36 30 29 38 42 54 38 35 39 43 34 36 40 35 38 38 37 38 36 37 39 37 34 28 22 19 25 24 16 15 20 22 23 17 20 24 17 20 22 22 18 16 19 18 17 17 14 15 16 17 13 11 11 10 10 10 11 12 12 14 14 13 14
56 56 56 56 56 57 57 57 57 58 58 57 57 57 56 56 56 58 60 59 60 60 55 48 45 33 27 26 35 49 39 37 35 42 43 39 33 28 37 36 38 35 33 32 36 36 33 31 26 25 26 17 20 21 18 20 19 22 18 21 19 20 21 12 12 21 20 19 20 16 15 15 15 16 17 14 11 10 10 10 10 11 12 12 13 13 13 14
56 55 56 55 55 56 57 57 57 57 57 57 56 55 55 55 57 60 60 58 56 54 46 37 39 32 25 33 36 35 34 38 43 42 39 41 34 32 31 34 30 31 33 33 34 33 30 26 28 23 25 17 21 21 15 22 19 18 21 16 23 15 14 12 13 9 23 18 17 18 16 15 15 17 16 14 12 10 10 10 10 10 11 12 13 13 13 13
56 55 55 55 55 56 57 57 57 58 57 57 57 55 52 55 58 57 46 47 50 51 48 44 40 29 20 34 29 31 40 39 42 41 41 43 36 32 28 26 28 28 28 26 28 25 28 24 28 21 29 20 9 19 21 20 20 16 17 15 13 14 15 13 13 9 18 19 17 17 17 16 17 18 17 15 12 11 10 11 10 10 11 12 13 13 12 13
55 55 55 55 55 56 56 57 57 57 56 57 56 54 55 56 45 35 33 32 28 21 20 31 26 15 11 15 33 37 40 41 40 36 33 34 38 37 36 33 32 25 26 27 25 26 28 27 29 25 23 24 17 11 17 23 20 10 13 13 15 11 12 10 11 10 15 10 11 16 14 11 12 13 18 16 14 11 11 11 11 10 10 11 13 13 13 13
55 55 54 55 55 56 56 57 57 57 56 54 46 36 35 30 28 25 28 25 21 15 15 18 27 29 32 33 36 40 43 36 30 33 36 39 32 28 27 31 36 34 30 31 32 28 29 21 20 20 21 22 23 11 14 15 13 13 17 16 10 11 11 11 11 12 18 14 12 10 12 13 13 13 14 18 15 13 12 11 11 10 11 11 12 13 12 13
56 55 54 54 54 55 56 57 57 57 56 47 39 27 18 22 21 18 25 29 29 32 28 28 31 26 23 36 40 34 31 31 30 30 34 35 28 24 22 23 29 29 31 29 28 28 28 22 22 23 22 22 23 15 14 15 14 12 14 14 11 17 10 11 11 15 16 15 16 17 16 15 14 15 16 18 16 14 13 12 11 10 10 11 12 12 12 12
55 55 54 54 54 55 56 57 57 56 55 44 35 20 23 24 27 26 28 22 30 36 36 34 37 36 38 38 39 34 32 28 31 34 35 35 28 23 22 20 28 25 29 25 27 26 24 21 21 22 25 17 11 12 13 11 16 17 13 16 15 14 17 15 17 20 17 18 15 16 15 15 15 16 16 18 17 16 14 13 12 11 11 11 12 11 12 13
57 55 54 55 55 55 56 57 56 56 43 36 38 39 36 43 43 42 37 31 33 37 40 38 36 37 38 36 36 33 29 27 26 32 32 32 26 25 23 24 28 27 26 22 24 23 22 24 28 26 17 11 13 16 14 16 18 14 15 13 14 18 16 17 16 23 20 16 16 17 16 16 17 17 17 17 18 17 18 15 16 15 12 11 11 11 12 12
55 55 54 54 55 56 56 56 55 48 42 39 40 35 42 42 43 43 37 31 27 29 38 39 37 37 36 33 36 31 30 29 25 26 32 25 23 24 23 26 25 25 25 21 25 23 19 20 20 15 16 12 13 19 15 14 15 20 18 17 15 17 15 15 15 20 18 17 21 15 15 15 16 16 16 15 17 18 16 16 15 16 18 16 17 16 14 11
54 54 55 55 56 56 56 56 44 42 42 42 42 42 42 42 43 43 36 20 18 24 37 37 40 40 37 41 38 30 28 25 24 24 29 24 21 22 21 25 25 24 25 20 21 19 18 18 22 18 20 18 18 16 19 20 14 19 23 18 17 16 15 16 21 18 18 18 15 15 17 17 16 16 16 17 12 14 16 15 14 14 15 15 14 13 14 16
54 55 56 56 56 56 55 45 42 43 42 41 40 44 41 40 41 39 25 17 11 18 30 30 41 31 39 31 35 32 26 24 27 28 35 25 30 23 27 23 25 24 24 18 18 22 21 22 22 21 21 22 20 19 22 20 17 17 19 22 20 17 19 21 20 19 16 13 15 17 15 16 12 14 14 14 12 12 13 14 14 14 14 14 14 14 12 10
54 55 56 56 56 55 44 39 45 43 38 39 45 42 41 44 43 43 22 14 9 24 26 35 33 32 36 34 30 29 20 26 25 23 24 30 24 27 25 25 22 21 22 16 23 18 17 17 23 24 23 22 22 19 23 18 19 17 22 25 23 21 20 20 18 18 16 21 20 15 15 12 13 14 15 14 13 12 12 12 13 14 14 14 14 14 11 9
54 55 56 56 55 54 49 44 42 43 38 44 42 39 42 42 44 36 13 1 -3 31 31 32 35 37 35 34 31 24 24 26 22 21 25 28 25 23 25 23 22 22 13 24 19 25 15 18 21 21 22 22 20 21 23 23 20 20 24 20 17 17 17 18 16 15 18 13 15 14 17 11 12 14 14 13 12 12 11 11 12 13 13 13 14 14 11 8
55 56 56 55 55 53 47 43 42 35 46 45 41 42 43 43 36 22 14 -1 12 30 33 32 37 31 32 32 30 29 28 26 23 25 27 23 27 22 23 23 24 25 21 24 21 24 25 20 23 23 21 18 21 23 25 24 20 23 24 23 24 21 21 18 15 16 15 12 17 18 15 12 16 18 13 13 12 11 12 12 12 12 13 13 14 13 10 8
55 56 56 54 52 48 44 44 43 45 45 43 41 43 44 39 30 13 12 -3 25 25 26 29 29 29 30 29 28 28 28 27 23 21 21 19 21 24 21 23 20 21 22 24 21 25 25 28 29 23 21 22 24 24 26 25 23 24 24 21 22 22 20 20 18 17 13 10 18 19 15 14 16 16 16 14 15 12 13 12 12 13 14 13 13 11 10 8
56 56 56 53 50 48 40 36 41 46 42 44 43 42 35 27 23 15 2 12 13 28 27 29 26 31 28 27 26 26 27 26 23 21 19 22 20 21 20 21 26 25 23 23 22 24 24 22 21 22 27 24 25 23 24 26 25 22 19 18 19 21 17 12 9 14 9 14 14 16 15 15 13 15 16 14 14 12 14 14 13 12 12 13 12 11 8 7
55 56 55 52 50 47 38 37 45 44 43 43 38 32 23 18 20 11 12 21 8 21 25 25 28 28 28 30 27 25 27 26 24 20 19 20 22 19 21 22 22 16 19 19 19 22 22 23 24 24 32 23 22 21 19 25 24 21 19 18 15 15 14 15 5 6 8 13 12 11 15 13 13 15 16 14 13 14 13 13 13 13 13 13 12 10 8 8
55 55 55 51 50 48 45 45 44 44 45 42 34 25 18 18 10 17 11 18 5 24 22 29 27 28 27 27 27 27 29 25 25 20 25 25 22 23 25 24 26 20 15 20 20 20 21 24 24 24 24 26 24 19 17 18 21 18 17 17 14 12 9 10 10 6 11 13 17 8 12 12 14 14 17 16 17 16 15 14 15 15 14 12 12 10 8 9
56 55 52 50 51 50 49 46 44 45 44 40 29 28 24 14 13 31 15 17 14 29 31 29 29 28 28 26 27 28 24 28 23 22 24 24 23 22 23 25 25 23 22 21 18 19 13 16 20 23 21 26 22 21 21 23 20 18 22 21 21 16 11 10 8 8 11 15 17 7 8 12 9 15 11 15 15 6 4 6 13 16 15 13 11 9 8 8
56 55 53 50 50 51 49 47 45 44 41 33 27 26 22 18 18 18 20 18 19 28 28 29 28 27 27 27 28 29 27 23 26 25 25 25 24 24 24 23 26 27 25 20 24 19 20 18 20 24 23 23 22 24 26 23 22 21 23 22 17 20 22 16 14 11 14 14 15 7 13 11 13 11 16 9 3 3 9 7 13 13 14 11 9 8 7 7
55 52 52 50 49 49 49 48 46 45 38 27 23 23 22 18 16 20 16 23 26 24 28 28 27 25 26 25 26 27 28 24 26 25 25 25 25 25 26 26 25 25 23 20 21 20 20 17 24 23 22 24 21 21 20 25 17 20 19 16 22 23 22 14 14 9 8 6 13 6 12 15 17 16 6 5 2 0 3 4 7 9 10 9 8 8 7 7
51 51 48 50 50 49 49 48 48 44 33 25 24 23 25 20 23 22 34 20 24 28 27 19 23 25 25 25 26 27 28 26 26 26 25 25 23 26 25 26 28 27 25 21 19 23 16 16 24 23 23 21 12 18 20 20 25 19 15 19 20 22 18 16 11 7 4 7 12 8 12 11 14 16 7 4 4 1 0 2 2 7 7 7 8 8 7 7
50 50 50 50 50 49 49 48 46 40 31 23 23 31 25 23 25 17 29 28 27 28 26 18 19 26 24 25 25 26 27 25 25 25 24 23 20 26 26 26 28 26 25 25 16 25 21 16 21 22 23 21 21 18 21 22 20 21 21 24 15 13 9 8 9 8 5 5 9 12 16 17 17 17 10 8 3 3 0 1 1 3 5 6 7 7 7 7
50 48 44 47 50 49 48 47 43 37 28 26 27 28 29 25 24 24 30 30 29 28 23 24 14 21 26 25 25 26 27 23 25 25 21 23 21 25 24 27 26 27 26 23 21 24 23 14 17 21 18 20 17 22 20 20 16 18 16 14 19 15 17 10 14 11 13 12 10 14 16 16 19 20 17 17 6 7 2 -0 -0 2 4 5 6 7 6 7
48 45 42 48 50 49 48 45 41 39 38 34 32 29 28 27 26 25 26 28 25 26 26 24 24 18 25 25 25 25 27 26 25 25 23 23 23 25 22 25 26 26 25 25 25 27 21 18 14 17 21 20 17 19 21 20 18 13 14 11 11 12 18 19 10 13 12 10 12 13 14 17 20 20 18 18 10 7 4 2 3 3 4 5 5 7 7 6
49 45 43 48 49 49 47 45 43 39 38 40 37 32 30 29 30 29 27 27 27 28 25 26 26 22 23 23 23 25 25 27 25 23 24 22 20 16 23 25 28 26 26 25 24 24 20 19 18 15 17 16 19 21 22 22 21 17 17 17 14 13 10 9 13 11 10 14 12 14 15 19 19 15 17 18 12 9 6 5 4 3 3 4 6 6 6 6
46 39 42 48 49 48 46 41 40 42 40 39 38 38 34 37 32 31 29 30 28 24 28 26 27 26 24 23 24 24 23 25 26 24 24 23 23 20 22 26 26 26 25 24 24 26 24 21 17 15 17 17 19 22 17 21 19 21 18 18 19 16 16 13 13 14 6 12 15 15 14 16 18 15 14 14 11 7 6 4 4 4 3 3 5 6 6 6
44 41 46 48 48 47 45 39 41 40 38 40 38 37 36 34 31 32 31 29 29 27 26 26 24 25 26 24 24 23 24 23 26 24 25 25 24 22 24 26 27 26 26 20 23 20 30 15 13 19 20 21 18 19 21 20 14 16 17 19 18 15 16 16 17 16 15 12 12 12 13 16 14 15 11 7 9 7 4 3 3 4 3 3 5 6 6 7
45 44 43 48 48 48 43 34 34 36 38 38 38 37 36 36 34 31 31 31 30 28 27 25 26 24 23 27 23 22 24 19 25 24 24 26 25 26 25 27 24 24 23 20 19 26 16 22 18 14 13 17 19 17 18 18 14 12 15 17 18 19 19 17 15 16 13 18 17 16 14 17 19 14 9 5 4 3 1 1 3 4 5 5 4 6 7 8
46 46 44 45 48 47 39 37 30 31 35 35 35 35 35 34 36 34 33 31 31 29 27 27 25 27 26 27 26 24 26 21 19 26 24 25 24 24 23 26 24 23 22 27 31 26 21 20 19 14 14 12 10 8 13 16 16 14 13 13 18 17 17 15 16 17 15 17 17 17 17 18 20 11 6 2 3 2 2 2 2 4 5 4 6 7 7 9
43 37 42 41 44 43 43 43 38 29 30 33 33 34 34 33 33 36 36 33 32 30 28 29 29 27 26 25 25 25 25 26 22 22 24 24 25 24 21 23 25 25 31 33 31 24 18 22 20 18 17 15 13 12 18 19 14 13 13 14 14 16 18 18 19 18 17 18 18 18 19 19 20 19 14 13 7 3 2 2 2 3 5 6 6 7 8 9
44 41 39 33 42 40 39 42 39 38 32 32 31 33 32 33 32 30 36 33 34 32 31 30 28 26 26 26 25 25 26 25 26 25 23 23 25 22 22 21 22 26 33 28 30 23 20 19 20 20 19 18 18 18 21 20 15 16 16 13 14 15 18 19 18 17 18 18 16 18 19 20 20 20 21 22 23 19 5 4 3 3 5 7 6 7 16 9
40 42 44 41 36 33 36 36 41 38 37 32 29 33 30 30 32 30 33 35 33 34 31 31 31 29 27 27 26 25 25 25 26 25 27 25 24 22 22 22 21 30 31 24 27 23 20 21 22 21 20 21 21 21 21 21 20 20 20 20 15 13 16 18 19 18 18 18 17 18 20 21 20 21 22 23 23 23 15 6 4 4 4 6 6 7 10 9
46 41 43 44 39 39 37 37 40 39 38 35 31 30 28 27 27 31 30 32 33 32 33 28 29 31 29 28 27 24 25 21 24 27 26 27 26 25 23 22 23 23 28 21 24 22 21 22 22 22 22 21 21 21 22 21 21 21 21 21 22 13 13 15 16 17 17 18 19 19 19 19 20 21 22 23 24 24 20 10 5 5 5 7 6 6 8 9
43 43 39 43 42 42 40 37 38 39 36 37 34 32 30 27 26 27 31 33 31 32 34 31 27 29 31 31 29 25 24 24 21 21 28 27 27 27 27 25 23 21 23 23 22 22 22 21 25 22 22 23 23 23 22 22 22 21 21 22 21 20 18 17 15 16 18 16 17 17 18 19 20 21 22 22 23 23 18 9 6 5 7 7 6 6 8 8
47 48 45 40 38 40 40 38 38 38 36 37 35 34 33 31 28 28 28 33 30 29 32 32 32 29 30 32 31 29 27 26 26 25 27 28 25 28 26 27 24 21 21 20 19 19 23 22 23 21 21 22 23 22 22 23 23 22 21 21 21 21 20 21 21 19 18 18 18 18 19 19 20 22 22 23 23 23 21 16 8 6 6 7 7 6 7 8
50 46 47 44 39 40 39 37 38 38 34 37 36 35 34 33 32 31 28 31 33 31 31 34 33 32 29 30 30 31 31 31 28 28 26 27 29 30 29 28 26 24 21 23 22 22 24 22 22 21 21 21 24 23 22 22 23 23 23 23 23 23 22 22 23 23 22 21 21 21 21 22 22 24 24 25 20 19 19 17 11 7 6 6 7 7 7 8